Weather History for Wright-Patt AFB, OH

Change the Weather History Date:

Tuesday, April 30, 2013

  Actual Average Record
Temperature  
Mean Temperature 62 °F -  
Max Temperature 76 °F 67 °F 85 °F (2007)
Min Temperature 46 °F 45 °F 37 °F (2002)
Degree Days  
Heating Degree Days 4    
Growing Degree Days 12 (Base 50)    
Moisture  
Dew Point 51 °F    
Average Humidity 77    
Maximum Humidity 100    
Minimum Humidity 41    
Precipitation  
Precipitation 0.00 in - - ()
Sea Level Pressure  
Sea Level Pressure 30.03 in    
Wind  
Wind Speed 2 mph (SE)    
Max Wind Speed 12 mph    
Max Gust Speed -    
Visibility 7 miles    
Events Fog    
Averages and records for this station are not official NWS values.
T = Trace of Precipitation, MM = Missing Value Source: NWS Daily Summary

Daily Weather History Graph

Daily Weather History Graph

Search for Another Location

Airport:

Trip Planner

Search our weather history database for the weather conditions in past years. The results will help you decide how hot, cold, wet, or windy it might be!

Date:

Astronomy

Apr. 30, 2013 Rise Set
Actual Time 6:37 AM EDT 8:29 PM EDT
Civil Twilight 6:08 AM EDT 8:59 PM EDT
Nautical Twilight 5:32 AM EDT 9:34 PM EDT
Astronomical Twilight 4:54 AM EDT 10:12 PM EDT
Moon 12:52 AM EDT (4/30) 11:05 AM EDT (4/30)
Length of Visible Light 14h 50m
Length of Day
13h 52m
Waning Gibbous, 70% of the Moon is Illuminated
Apr 30
Waning Gibbous
May 2
Last Quarter
May 9
New
May 18
First Quarter
May 25
Full

Hourly Weather History & Observations

Time (EDT) Temp. Dew Point Humidity Pressure Visibility Wind Dir Wind Speed Gust Speed Precip Events Conditions
12:58 AM 53.6 °F 52.2 °F 95% 30.00 in 10.0 mi Calm Calm - N/A   Clear
1:58 AM 53.6 °F 53.6 °F 100% 30.00 in 9.0 mi SE 2.3 mph - N/A Fog Shallow Fog
2:28 AM 53.6 °F 51.8 °F 94% 29.99 in 8.0 mi Calm Calm - N/A Fog Shallow Fog
2:58 AM 48.9 °F 48.7 °F 99% 30.00 in 7.0 mi Calm Calm - N/A Fog Shallow Fog
3:08 AM 50.0 °F 50.0 °F 100% 29.99 in 5.0 mi Calm Calm - N/A   Clear
3:48 AM 48.2 °F 48.2 °F 100% 30.00 in 5.0 mi Calm Calm - N/A   Clear
3:58 AM 48.2 °F 48.2 °F 100% 30.01 in 5.0 mi Calm Calm - N/A   Clear
4:58 AM 46.4 °F 46.4 °F 100% 30.02 in 5.0 mi Calm Calm - N/A   Clear
5:38 AM 46.4 °F 46.4 °F 100% 30.01 in 1.0 mi NNW 1.2 mph - N/A   Clear
5:58 AM 47.5 °F 47.3 °F 99% 30.02 in 5.0 mi Calm Calm - N/A   Clear
6:16 AM 46.4 °F 46.4 °F 100% 30.02 in 1.5 mi North 2.3 mph - N/A   Clear
6:28 AM 46.4 °F 46.4 °F 100% 30.02 in 1.5 mi Calm Calm - N/A   Clear
6:58 AM 47.1 °F 47.1 °F 100% 30.04 in 1.5 mi Calm Calm - N/A   Clear
7:08 AM 46.4 °F 46.4 °F 100% 30.03 in 2.0 mi Calm Calm - N/A   Clear
7:28 AM 46.4 °F 46.4 °F 100% 30.03 in 2.5 mi South 2.3 mph - N/A   Clear
7:38 AM 48.2 °F 48.2 °F 100% 30.04 in 3.0 mi South 1.2 mph - N/A   Clear
7:58 AM 52.3 °F 52.3 °F 100% 30.05 in 6.0 mi SE 4.6 mph - N/A   Clear
8:58 AM 57.4 °F 55.8 °F 94% 30.06 in 8.0 mi SE 8.1 mph - N/A   Clear
9:58 AM 62.6 °F 54.7 °F 75% 30.07 in 10.0 mi SSE 9.2 mph - N/A   Partly Cloudy
10:58 AM 66.0 °F 53.1 °F 63% 30.07 in 10.0 mi South 9.2 mph - N/A   Partly Cloudy
11:58 AM 67.6 °F 53.2 °F 60% 30.07 in 10.0 mi Variable 6.9 mph - N/A   Partly Cloudy
12:58 PM 70.3 °F 54.3 °F 57% 30.06 in 10.0 mi Variable 2.3 mph - N/A   Partly Cloudy
1:58 PM 72.3 °F 54.0 °F 52% 30.05 in 10.0 mi South 3.5 mph - N/A   Scattered Clouds
2:58 PM 74.8 °F 53.1 °F 47% 30.04 in 10.0 mi ESE 8.1 mph - N/A   Partly Cloudy
3:58 PM 75.7 °F 53.8 °F 46% 30.04 in 10.0 mi East 10.4 mph - N/A   Partly Cloudy
4:58 PM 76.1 °F 52.2 °F 43% 30.01 in 10.0 mi East 5.8 mph - N/A   Partly Cloudy
5:13 PM 77.0 °F 53.6 °F 44% 30.01 in 10.0 mi ESE 11.5 mph - N/A   Partly Cloudy
5:23 PM 77.0 °F 51.8 °F 41% 30.01 in 10.0 mi East 8.1 mph - N/A   Partly Cloudy
5:58 PM 76.3 °F 51.1 °F 41% 30.01 in 10.0 mi ESE 9.2 mph - N/A   Partly Cloudy
6:58 PM 75.6 °F 53.8 °F 47% 30.03 in 10.0 mi SSE 8.1 mph - N/A   Partly Cloudy
7:58 PM 73.6 °F 51.8 °F 46% 30.04 in 10.0 mi SSE 6.9 mph - N/A   Partly Cloudy
8:58 PM 70.3 °F 51.1 °F 50% 30.06 in 10.0 mi Calm Calm - N/A   Partly Cloudy
9:58 PM 64.8 °F 52.5 °F 64% 30.07 in 10.0 mi Calm Calm - N/A   Clear
10:58 PM 63.9 °F 53.2 °F 68% 30.08 in 10.0 mi North 1.2 mph - N/A   Clear
11:58 PM 59.5 °F 53.1 °F 79% 30.08 in 10.0 mi Calm Calm - N/A   Clear